• Em Portugal
  • Lista de países
  • Para 7 dias
  • Temperatura da água
  • Mapas de satélite
  • Mapa do tempo
  • Widgets de tempo
  • user-avatar
    Iniciar Sessão

    Previsão horária em Goiania

    Hoje, 20 Setembro, Quarta-feira

    Tempo Temperatura Precipitação Vento Pressão Humidade
    00:00 +26°C° 0 mm 4 m/s 701 mmHg 32%
    01:00 +25°C° 0 mm 3 m/s 701 mmHg 34%
    02:00 +25°C° 0 mm 3 m/s 700 mmHg 36%
    03:00 +24°C° 0 mm 3 m/s 700 mmHg 38%
    04:00 +24°C° 0 mm 3 m/s 700 mmHg 39%
    05:00 +22°C° 0 mm 3 m/s 700 mmHg 40%
    06:00 +22°C° 0 mm 3 m/s 700 mmHg 41%
    07:00 +25°C° 0 mm 4 m/s 701 mmHg 40%
    08:00 +27°C° 0 mm 5 m/s 702 mmHg 39%
    09:00 +29°C° 0 mm 5 m/s 702 mmHg 38%
    10:00 +32°C° 0 mm 4 m/s 703 mmHg 32%
    11:00 +34°C° 0 mm 3 m/s 703 mmHg 26%
    12:00 +36°C° 0 mm 2 m/s 703 mmHg 19%
    13:00 +36°C° 0 mm 2 m/s 702 mmHg 18%
    14:00 +36°C° 0 mm 2 m/s 701 mmHg 17%
    15:00 +36°C° 0 mm 2 m/s 700 mmHg 17%
    16:00 +34°C° 0 mm 2 m/s 700 mmHg 18%
    17:00 +32°C° 0 mm 2 m/s 700 mmHg 20%
    18:00 +31°C° 0 mm 1 m/s 700 mmHg 22%
    19:00 +30°C° 0,2 mm 2 m/s 700 mmHg 25%
    20:00 +29°C° 0,2 mm 2 m/s 700 mmHg 29%
    21:00 +28°C° 0,2 mm 2 m/s 701 mmHg 32%
    22:00 +27°C° 0,2 mm 3 m/s 701 mmHg 36%
    23:00 +26°C° 0,2 mm 3 m/s 701 mmHg 41%

    Amanhã, 21 Setembro, Quinta-feira

    Tempo Temperatura Precipitação Vento Pressão Humidade
    00:00 +25°C° 0,2 mm 3 m/s 701 mmHg 45%
    01:00 +25°C° 0,1 mm 3 m/s 700 mmHg 47%
    02:00 +24°C° 0,1 mm 3 m/s 700 mmHg 49%
    03:00 +24°C° 0,1 mm 2 m/s 700 mmHg 51%
    04:00 +22°C° 0 mm 3 m/s 700 mmHg 50%
    05:00 +22°C° 0 mm 4 m/s 700 mmHg 49%
    06:00 +22°C° 0 mm 4 m/s 701 mmHg 49%
    07:00 +25°C° 0 mm 5 m/s 701 mmHg 47%
    08:00 +26°C° 0 mm 5 m/s 702 mmHg 45%
    09:00 +27°C° 0 mm 5 m/s 703 mmHg 43%
    10:00 +29°C° 0 mm 5 m/s 703 mmHg 36%
    11:00 +32°C° 0 mm 4 m/s 703 mmHg 30%
    12:00 +34°C° 0 mm 3 m/s 703 mmHg 24%
    13:00 +34°C° 0 mm 3 m/s 702 mmHg 23%
    14:00 +34°C° 0 mm 2 m/s 701 mmHg 23%
    15:00 +34°C° 0 mm 2 m/s 700 mmHg 22%
    16:00 +32°C° 0 mm 2 m/s 700 mmHg 25%
    17:00 +31°C° 0 mm 2 m/s 700 mmHg 27%
    18:00 +30°C° 0 mm 2 m/s 700 mmHg 29%
    19:00 +28°C° 0,1 mm 2 m/s 700 mmHg 32%
    20:00 +27°C° 0,1 mm 2 m/s 700 mmHg 36%
    21:00 +26°C° 0,1 mm 2 m/s 701 mmHg 39%
    22:00 +25°C° 0,1 mm 2 m/s 701 mmHg 42%
    23:00 +25°C° 0,1 mm 2 m/s 701 mmHg 45%

    Depois de amanhã, 22 Setembro, Sexta-feira

    Tempo Temperatura Precipitação Vento Pressão Humidade
    00:00 +24°C° 0,1 mm 2 m/s 701 mmHg 48%
    01:00 +24°C° 0 mm 3 m/s 700 mmHg 49%
    02:00 +24°C° 0 mm 3 m/s 700 mmHg 50%
    03:00 +22°C° 0 mm 3 m/s 699 mmHg 52%
    04:00 +22°C° 0 mm 3 m/s 700 mmHg 52%
    05:00 +22°C° 0 mm 4 m/s 700 mmHg 52%
    06:00 +21°C° 0 mm 4 m/s 700 mmHg 52%
    07:00 +23°C° 0 mm 4 m/s 701 mmHg 47%
    08:00 +26°C° 0 mm 4 m/s 701 mmHg 43%
    09:00 +28°C° 0 mm 5 m/s 702 mmHg 38%
    10:00 +30°C° 0 mm 4 m/s 702 mmHg 33%
    11:00 +34°C° 0 mm 3 m/s 702 mmHg 28%
    12:00 +36°C° 0 mm 2 m/s 701 mmHg 23%
    13:00 +36°C° 0 mm 2 m/s 701 mmHg 23%
    14:00 +35°C° 0 mm 1 m/s 700 mmHg 23%
    15:00 +34°C° 0 mm 1 m/s 699 mmHg 22%
    16:00 +33°C° 0 mm 1 m/s 699 mmHg 24%
    17:00 +32°C° 0 mm 1 m/s 699 mmHg 26%
    18:00 +31°C° 0 mm 1 m/s 699 mmHg 27%
    19:00 +29°C° 0,5 mm 2 m/s 699 mmHg 33%
    20:00 +28°C° 0,5 mm 3 m/s 700 mmHg 39%
    21:00 +27°C° 0,5 mm 4 m/s 700 mmHg 45%
    22:00 +26°C° 0 mm 4 m/s 700 mmHg 47%
    23:00 +25°C° 0 mm 4 m/s 700 mmHg 48%

    23 Setembro, Sábado

    Tempo Temperatura Precipitação Vento Pressão Humidade
    00:00 +25°C° 0 mm 4 m/s 700 mmHg 50%
    01:00 +23°C° 0 mm 4 m/s 700 mmHg 48%
    02:00 +23°C° 0 mm 4 m/s 700 mmHg 46%
    03:00 +24°C° 0 mm 3 m/s 699 mmHg 44%
    04:00 +23°C° 0 mm 4 m/s 699 mmHg 42%
    05:00 +22°C° 0 mm 4 m/s 700 mmHg 41%
    06:00 +22°C° 0 mm 4 m/s 700 mmHg 39%
    07:00 +25°C° 0 mm 4 m/s 701 mmHg 37%
    08:00 +27°C° 0 mm 4 m/s 701 mmHg 35%
    09:00 +29°C° 0 mm 5 m/s 702 mmHg 32%
    10:00 +32°C° 0 mm 4 m/s 702 mmHg 28%
    11:00 +35°C° 0 mm 3 m/s 702 mmHg 24%
    12:00 +37°C° 0 mm 2 m/s 701 mmHg 20%
    13:00 +36°C° 0 mm 1 m/s 700 mmHg 19%
    14:00 +36°C° 0 mm 1 m/s 700 mmHg 18%
    15:00 +36°C° 0 mm 1 m/s 699 mmHg 17%
    16:00 +35°C° 0 mm 1 m/s 699 mmHg 18%
    17:00 +33°C° 0 mm 1 m/s 699 mmHg 20%
    18:00 +32°C° 0 mm 1 m/s 699 mmHg 22%
    19:00 +31°C° 0 mm 1 m/s 699 mmHg 24%
    20:00 +30°C° 0 mm 2 m/s 699 mmHg 27%
    21:00 +28°C° 0 mm 2 m/s 699 mmHg 29%
    22:00 +28°C° 0 mm 2 m/s 699 mmHg 31%
    23:00 +27°C° 0 mm 2 m/s 699 mmHg 33%

    24 Setembro, Domingo

    Tempo Temperatura Precipitação Vento Pressão Humidade
    00:00 +27°C° 0 mm 2 m/s 699 mmHg 34%
    01:00 +26°C° 0 mm 2 m/s 699 mmHg 35%
    02:00 +26°C° 0 mm 3 m/s 698 mmHg 36%
    03:00 +25°C° 0 mm 3 m/s 698 mmHg 37%
    04:00 +25°C° 0 mm 3 m/s 698 mmHg 36%
    05:00 +24°C° 0 mm 3 m/s 698 mmHg 35%
    06:00 +24°C° 0 mm 3 m/s 698 mmHg 35%
    07:00 +26°C° 0 mm 4 m/s 699 mmHg 33%
    08:00 +28°C° 0 mm 4 m/s 700 mmHg 31%
    09:00 +30°C° 0 mm 4 m/s 700 mmHg 30%
    10:00 +34°C° 0 mm 3 m/s 700 mmHg 26%
    11:00 +36°C° 0 mm 2 m/s 700 mmHg 21%
    12:00 +39°C° 0 mm 1 m/s 700 mmHg 17%
    13:00 +37°C° 0 mm 1 m/s 699 mmHg 17%
    14:00 +37°C° 0 mm 2 m/s 699 mmHg 18%
    15:00 +37°C° 0 mm 2 m/s 698 mmHg 18%
    16:00 +35°C° 0 mm 2 m/s 698 mmHg 20%
    17:00 +34°C° 0 mm 2 m/s 698 mmHg 22%
    18:00 +32°C° 0 mm 2 m/s 698 mmHg 25%
    19:00 +31°C° 0 mm 2 m/s 698 mmHg 28%
    20:00 +30°C° 0 mm 2 m/s 698 mmHg 30%
    21:00 +29°C° 0 mm 2 m/s 699 mmHg 33%
    22:00 +28°C° 0 mm 3 m/s 699 mmHg 34%
    23:00 +28°C° 0 mm 3 m/s 699 mmHg 36%

    25 Setembro, Segunda-feira

    Tempo Temperatura Precipitação Vento Pressão Humidade
    00:00 +27°C° 0 mm 3 m/s 699 mmHg 37%
    01:00 +27°C° 0 mm 3 m/s 698 mmHg 38%
    02:00 +27°C° 0 mm 3 m/s 698 mmHg 39%
    03:00 +26°C° 0 mm 3 m/s 698 mmHg 40%
    04:00 +26°C° 0 mm 3 m/s 698 mmHg 40%
    05:00 +26°C° 0 mm 4 m/s 698 mmHg 40%
    06:00 +26°C° 0 mm 4 m/s 699 mmHg 40%
    07:00 +27°C° 0 mm 4 m/s 699 mmHg 38%
    08:00 +29°C° 0 mm 5 m/s 700 mmHg 36%
    09:00 +30°C° 0 mm 5 m/s 701 mmHg 33%
    10:00 +33°C° 0 mm 4 m/s 701 mmHg 29%
    11:00 +35°C° 0 mm 3 m/s 701 mmHg 25%
    12:00 +37°C° 0 mm 2 m/s 700 mmHg 21%
    13:00 +37°C° 0 mm 2 m/s 700 mmHg 21%
    14:00 +37°C° 0 mm 2 m/s 699 mmHg 20%
    15:00 +37°C° 0 mm 2 m/s 698 mmHg 20%
    16:00 +36°C° 0 mm 2 m/s 698 mmHg 22%
    17:00 +35°C° 0 mm 2 m/s 698 mmHg 24%
    18:00 +32°C° 0 mm 2 m/s 698 mmHg 26%
    19:00 +32°C° 0 mm 2 m/s 698 mmHg 27%
    20:00 +31°C° 0 mm 3 m/s 698 mmHg 29%
    21:00 +30°C° 0 mm 3 m/s 699 mmHg 31%
    22:00 +29°C° 0,1 mm 3 m/s 699 mmHg 34%
    23:00 +28°C° 0,1 mm 3 m/s 699 mmHg 37%
    Mostrar mais